FW7570 Weather Reports


Display with metric or nautical units.
time (UTC)temp
F
wind
direction
speed
MPH
gust
MPH
rain 1hr
in
rain 24hr
in
rain mn
in
humidity
%
barometer
mb
20260502181558 67 151 0.0 0.0 0.00 0.00 0.00 70 1015.6
20260502181057 68 0 0.0 0.0 0.00 0.00 0.00 69 1015.5
20260502180557 68 0 0.0 1.0 0.00 0.00 0.00 68 1015.4
20260502180113 68 0 0.0 1.0 0.00 0.00 0.00 68 1015.4
20260502164056 72 0 0.0 3.0 0.00 0.00 0.00 59 1016.0
20260502163556 73 342 0.0 1.0 0.00 0.00 0.00 59 1015.9
20260502163110 73 0 0.0 1.0 0.00 0.00 0.00 59 1015.8
20260502162557 73 311 0.0 1.0 0.00 0.00 0.00 57 1015.9
20260502162057 73 0 0.0 1.0 0.00 0.00 0.00 60 1016.0
20260502161558 73 0 0.0 1.0 0.00 0.00 0.00 60 1016.0
20260502161057 73 0 0.0 1.0 0.00 0.00 0.00 60 1016.0
20260502160557 72 0 0.0 1.0 0.00 0.00 0.00 62 1016.0
20260502152058 74 281 0.0 2.0 0.00 0.00 0.00 56 1016.3
20260502151604 74 0 0.0 4.0 0.00 0.00 0.00 55 1016.5
20260502151058 75 160 1.0 4.0 0.00 0.00 0.00 54 1016.6
20260502150558 76 164 0.0 2.0 0.00 0.00 0.00 52 1016.6
20260502140107 77 238 0.0 4.0 0.00 0.00 0.00 50 1017.1
20260502130600 80 138 1.0 6.0 0.00 0.00 0.00 43 1017.4
20260502130110 79 229 2.0 6.0 0.00 0.00 0.00 42 1017.4
20260502123600 79 172 2.0 7.0 0.00 0.00 0.00 42 1017.6
20260502123105 79 205 3.0 7.0 0.00 0.00 0.00 43 1017.6
20260502122556 78 100 3.0 7.0 0.00 0.00 0.00 44 1017.7
20260502122056 78 206 2.0 8.0 0.00 0.00 0.00 44 1017.8
20260502121600 79 250 2.0 8.0 0.00 0.00 0.00 43 1017.8
20260502121148 79 250 4.0 8.0 0.00 0.00 0.00 43 1017.9
20260502120557 79 147 2.0 6.0 0.00 0.00 0.00 43 1017.9
20260502115559 79 148 2.0 10.0 0.00 0.00 0.00 43 1018.0
20260502115053 79 267 2.0 10.0 0.00 0.00 0.00 42 1018.0
20260502114555 79 20 3.0 13.0 0.00 0.00 0.00 42 1018.2
20260502114056 79 196 3.0 13.0 0.00 0.00 0.00 43 1018.2
20260502113556 79 164 2.0 7.0 0.00 0.00 0.00 42 1018.3
20260502113057 79 233 2.0 7.0 0.00 0.00 0.00 43 1018.3
20260502112556 79 246 4.0 8.0 0.00 0.00 0.00 41 1018.5
20260502112056 80 82 2.0 8.0 0.00 0.00 0.00 41 1018.6
20260502111556 80 136 2.0 8.0 0.00 0.00 0.00 40 1018.7
20260502111100 80 182 3.0 8.0 0.00 0.00 0.00 41 1018.6
20260502110601 80 229 1.0 3.0 0.00 0.00 0.00 40 1018.7
20260502110104 79 227 0.0 5.0 0.00 0.00 0.00 43 1018.9
20260502105558 78 179 1.0 5.0 0.00 0.00 0.00 45 1018.8
20260502105057 78 247 0.0 8.0 0.00 0.00 0.00 42 1019.0
20260502104554 77 150 3.0 8.0 0.00 0.00 0.00 43 1019.1
20260502104053 77 159 2.0 6.0 0.00 0.00 0.00 44 1019.2
20260502103556 77 264 1.0 6.0 0.00 0.00 0.00 44 1019.3
20260502103053 76 349 1.0 6.0 0.00 0.00 0.00 45 1019.4
20260502102554 75 124 1.0 6.0 0.00 0.00 0.00 45 1019.5
20260502102056 75 261 1.0 7.0 0.00 0.00 0.00 45 1019.5
20260502101555 75 168 2.0 7.0 0.00 0.00 0.00 45 1019.6
20260502101057 75 146 1.0 6.0 0.00 0.00 0.00 44 1019.7
20260502100555 75 147 1.0 5.0 0.00 0.00 0.00 45 1019.7
20260502091056 74 247 1.0 4.0 0.00 0.00 0.00 46 1020.1
20260502090556 73 243 1.0 4.0 0.00 0.00 0.00 46 1020.1
20260502071056 66 0 0.0 3.0 0.00 0.00 0.00 50 1020.6
20260502070557 65 145 0.0 3.0 0.00 0.00 0.00 49 1020.7
20260502065557 64 212 0.0 3.0 0.00 0.00 0.00 49 1020.6
20260502065057 64 139 1.0 4.0 0.00 0.00 0.00 49 1020.6
20260502064556 63 218 0.0 4.0 0.00 0.00 0.00 49 1020.6
20260502064054 63 202 0.0 4.0 0.00 0.00 0.00 49 1020.7
20260502063559 63 0 1.0 4.0 0.00 0.00 0.00 48 1020.5
20260502063057 63 152 0.0 3.0 0.00 0.00 0.00 47 1020.6
20260502062557 63 148 0.0 4.0 0.00 0.00 0.00 47 1020.7
20260502062056 63 252 0.0 5.0 0.00 0.00 0.00 47 1020.6
20260502061554 63 135 0.0 5.0 0.00 0.00 0.00 48 1020.6
20260502061056 63 156 1.0 3.0 0.00 0.00 0.00 47 1020.7
20260502060556 63 145 0.0 4.0 0.00 0.00 0.00 47 1020.5
20260502060101 62 167 1.0 4.0 0.00 0.00 0.00 48 1020.4
20260502055558 62 166 1.0 4.0 0.00 0.00 0.00 48 1020.5
20260502055056 61 240 1.0 6.0 0.00 0.00 0.00 48 1020.5
20260502054558 61 116 1.0 6.0 0.00 0.00 0.00 48 1020.5
20260502054056 61 136 2.0 5.0 0.00 0.00 0.00 48 1020.5
20260502053556 60 319 2.0 5.0 0.00 0.00 0.00 48 1020.6
20260502053059 60 219 1.0 4.0 0.00 0.00 0.00 49 1020.7
20260502052600 59 232 1.0 4.0 0.00 0.00 0.00 50 1020.6
20260502052056 59 304 1.0 9.0 0.00 0.00 0.00 51 1020.5
20260502051556 59 152 1.0 9.0 0.00 0.00 0.00 51 1020.7
20260502051056 59 0 2.0 9.0 0.00 0.00 0.00 50 1020.7
20260502050559 59 166 1.0 4.0 0.00 0.00 0.00 50 1020.7
20260502050055 59 266 2.0 7.0 0.00 0.00 0.00 50 1020.6
20260502045559 59 271 1.0 7.0 0.00 0.00 0.00 50 1020.6
20260502045057 59 256 0.0 5.0 0.00 0.00 0.00 50 1020.4
20260502044557 58 275 1.0 5.0 0.00 0.00 0.00 51 1020.5
20260502044057 57 262 1.0 3.0 0.00 0.00 0.00 52 1020.4
20260502043557 55 250 1.0 2.0 0.00 0.00 0.00 56 1020.4
20260502043107 53 155 0.0 1.0 0.00 0.00 0.00 58 1020.4
20260502042557 53 0 0.0 1.0 0.00 0.00 0.00 60 1020.3
20260502042057 53 0 0.0 0.0 0.00 0.00 0.00 60 1020.4
20260502041557 53 0 0.0 1.0 0.00 0.00 0.00 59 1020.4
20260502041056 53 0 0.0 1.0 0.00 0.00 0.00 59 1020.5
20260502040600 53 0 0.0 2.0 0.00 0.00 0.00 59 1020.5
20260502040057 53 0 0.0 2.0 0.00 0.00 0.00 59 1020.5
20260502035558 53 158 0.0 2.0 0.00 0.00 0.00 59 1020.5
20260502035058 53 0 0.0 3.0 0.00 0.00 0.00 60 1020.5
20260502034556 53 165 0.0 3.0 0.00 0.00 0.00 61 1020.7
20260502034057 52 150 0.0 3.0 0.00 0.00 0.00 62 1020.6
20260502033556 51 137 0.0 2.0 0.00 0.00 0.00 64 1020.7
20260502033056 50 160 0.0 1.0 0.00 0.00 0.00 66 1020.7
20260502032556 49 0 0.0 0.0 0.00 0.00 0.00 68 1020.8
20260502032057 48 0 0.0 0.0 0.00 0.00 0.00 68 1020.8
20260502031554 48 0 0.0 0.0 0.00 0.00 0.00 69 1020.7
20260502031056 48 0 0.0 0.0 0.00 0.00 0.00 69 1020.9
20260502030556 47 0 0.0 0.0 0.00 0.00 0.00 70 1020.8
20260502030054 47 0 0.0 0.0 0.00 0.00 0.00 71 1020.8
20260502025556 46 0 0.0 0.0 0.00 0.00 0.00 71 1020.7
20260502025056 46 0 0.0 0.0 0.00 0.00 0.00 71 1020.9
20260502024558 46 0 0.0 0.0 0.00 0.00 0.00 71 1020.9
20260502024056 46 0 0.0 0.0 0.00 0.00 0.00 71 1021.0
20260502023555 46 0 0.0 0.0 0.00 0.00 0.00 72 1020.9
20260502023058 46 0 0.0 0.0 0.00 0.00 0.00 72 1021.0
20260502022555 46 0 0.0 0.0 0.00 0.00 0.00 71 1021.0
20260502022058 46 0 0.0 0.0 0.00 0.00 0.00 70 1021.2
20260502021558 47 0 0.0 0.0 0.00 0.00 0.00 69 1021.1
20260502021055 47 0 0.0 1.0 0.00 0.00 0.00 68 1021.1
20260502020556 48 0 0.0 1.0 0.00 0.00 0.00 68 1021.1
20260502020057 48 146 0.0 2.0 0.00 0.00 0.00 68 1021.1
20260502015555 48 0 0.0 3.0 0.00 0.00 0.00 68 1021.3
20260502015057 48 143 0.0 3.0 0.00 0.00 0.00 68 1021.3
20260502014600 48 146 1.0 3.0 0.00 0.00 0.00 68 1021.3
20260502014056 48 135 1.0 4.0 0.00 0.00 0.00 67 1021.4
20260502013556 49 251 1.0 4.0 0.00 0.00 0.00 66 1021.4
20260502013102 49 155 2.0 4.0 0.00 0.00 0.00 65 1021.3
20260502012556 49 154 1.0 3.0 0.00 0.00 0.00 65 1021.5
20260502012056 49 162 1.0 3.0 0.00 0.00 0.00 65 1021.6
20260502011559 49 154 1.0 2.0 0.00 0.00 0.00 65 1021.6
20260502011055 49 160 1.0 2.0 0.00 0.00 0.00 65 1021.5
20260502010555 49 131 0.0 2.0 0.00 0.00 0.00 65 1021.6
20260502010101 49 144 0.0 2.0 0.00 0.00 0.00 66 1021.7
20260502005553 49 141 0.0 2.0 0.00 0.00 0.00 66 1021.7
20260502005056 48 141 0.0 3.0 0.00 0.00 0.00 67 1021.8
20260502004605 48 142 1.0 3.0 0.00 0.00 0.00 68 1021.8
20260502004059 48 156 0.0 2.0 0.00 0.00 0.00 69 1021.9
20260502003559 48 0 0.0 1.0 0.00 0.00 0.00 68 1022.0
20260502003058 48 0 0.0 1.0 0.00 0.00 0.00 68 1022.0
20260502002554 48 0 0.0 1.0 0.00 0.00 0.00 67 1022.1
20260502002058 49 143 0.0 2.0 0.00 0.00 0.00 67 1022.2
20260502001556 49 0 0.0 2.0 0.00 0.00 0.00 66 1022.2
20260502001059 49 144 0.0 2.0 0.00 0.00 0.00 65 1022.2
20260502000556 50 0 0.0 2.0 0.00 0.00 0.00 65 1022.3
20260502000111 50 145 0.0 2.0 0.00 0.00 0.00 64 1022.4
20260501235557 50 196 1.0 2.0 0.00 0.00 0.00 64 1022.3
20260501235055 49 150 1.0 2.0 0.00 0.00 0.00 65 1022.4
20260501234556 49 158 0.0 2.0 0.00 0.00 0.00 66 1022.4
20260501234056 49 143 0.0 1.0 0.00 0.00 0.00 66 1022.5
20260501233554 50 0 0.0 2.0 0.00 0.00 0.00 65 1022.5
20260501233106 50 0 0.0 3.0 0.00 0.00 0.00 64 1022.5
20260501232555 50 139 0.0 3.0 0.00 0.00 0.00 64 1022.5
20260501232056 51 143 1.0 3.0 0.00 0.00 0.00 63 1022.6
20260501231610 51 155 1.0 2.0 0.00 0.00 0.00 63 1022.6
20260501231053 50 154 0.0 1.0 0.00 0.00 0.00 64 1022.7
20260501230555 50 154 0.0 2.0 0.00 0.00 0.00 64 1022.7
20260501230107 51 0 0.0 3.0 0.00 0.00 0.00 64 1022.7
20260501225556 51 149 0.0 3.0 0.00 0.00 0.00 63 1022.6
20260501225056 51 148 1.0 2.0 0.00 0.00 0.00 63 1022.7
20260501224606 51 150 0.0 2.0 0.00 0.00 0.00 62 1022.8
20260501224056 52 146 1.0 2.0 0.00 0.00 0.00 62 1022.7
20260501223556 52 140 1.0 2.0 0.00 0.00 0.00 61 1022.7
20260501223103 52 151 0.0 1.0 0.00 0.00 0.00 61 1022.9
20260501222556 52 147 0.0 1.0 0.00 0.00 0.00 61 1022.9
20260501222055 52 0 0.0 1.0 0.00 0.00 0.00 60 1022.8
20260501221601 52 0 0.0 1.0 0.00 0.00 0.00 60 1022.8
20260501221055 52 150 0.0 0.0 0.00 0.00 0.00 60 1022.8
20260501220556 52 0 0.0 0.0 0.00 0.00 0.00 60 1022.8
20260501220059 52 0 0.0 0.0 0.00 0.00 0.00 61 1022.9
20260501215556 52 0 0.0 1.0 0.00 0.00 0.00 61 1022.9
20260501215056 52 0 0.0 1.0 0.00 0.00 0.00 60 1022.9
20260501214555 53 0 0.0 1.0 0.00 0.00 0.00 60 1022.8
20260501214054 53 140 0.0 1.0 0.00 0.00 0.00 60 1022.9
20260501213559 53 153 0.0 2.0 0.00 0.00 0.00 60 1023.0
20260501213055 53 0 0.0 2.0 0.00 0.00 0.00 59 1022.9
20260501212559 54 146 0.0 2.0 0.00 0.00 0.00 59 1022.9
20260501212055 54 0 0.0 3.0 0.00 0.00 0.00 58 1023.0
20260501211553 54 135 0.0 3.0 0.00 0.00 0.00 57 1023.1
20260501211055 55 162 2.0 3.0 0.00 0.00 0.00 56 1023.0
20260501210555 56 146 0.0 1.0 0.00 0.00 0.00 54 1023.0
20260501210054 55 154 0.0 1.0 0.00 0.00 0.00 54 1023.0
20260501205556 55 0 0.0 0.0 0.00 0.00 0.00 54 1023.1
20260501205056 55 0 0.0 0.0 0.00 0.00 0.00 54 1023.1
20260501204553 56 0 0.0 0.0 0.00 0.00 0.00 56 1023.0
20260501204055 56 0 0.0 0.0 0.00 0.00 0.00 54 1023.0
20260501203556 56 154 0.0 0.0 0.00 0.00 0.00 54 1023.1
20260501203054 56 0 0.0 0.0 0.00 0.00 0.00 54 1023.1
20260501202559 56 0 0.0 0.0 0.00 0.00 0.00 54 1023.1
20260501202056 56 0 0.0 0.0 0.00 0.00 0.00 54 1023.1
20260501201607 56 0 0.0 0.0 0.00 0.00 0.00 54 1023.0
20260501201057 57 0 0.0 0.0 0.00 0.00 0.00 53 1023.0
20260501200557 57 0 0.0 0.0 0.00 0.00 0.00 53 1023.1
20260501200058 57 0 0.0 0.0 0.00 0.00 0.00 53 1023.0
20260501195556 57 0 0.0 0.0 0.00 0.00 0.00 52 1023.0
20260501195056 58 0 0.0 0.0 0.00 0.00 0.00 52 1023.0
20260501194601 58 0 0.0 0.0 0.00 0.00 0.00 51 1023.0
20260501194059 59 0 0.0 0.0 0.00 0.00 0.00 51 1022.9
20260501193554 59 0 0.0 0.0 0.00 0.00 0.00 50 1022.9
20260501193100 60 0 0.0 0.0 0.00 0.00 0.00 49 1022.9
20260501192556 60 0 0.0 0.0 0.00 0.00 0.00 48 1022.9
20260501192056 61 0 0.0 0.0 0.00 0.00 0.00 48 1023.1
20260501191553 61 0 0.0 0.0 0.00 0.00 0.00 47 1023.0
20260501191056 62 0 0.0 0.0 0.00 0.00 0.00 45 1023.0
20260501190555 63 0 0.0 0.0 0.00 0.00 0.00 44 1023.1
20260501190056 63 0 0.0 0.0 0.00 0.00 0.00 43 1023.0
20260501185555 64 0 0.0 0.0 0.00 0.00 0.00 42 1023.0
20260501185055 65 0 0.0 0.0 0.00 0.00 0.00 42 1022.9
20260501184558 65 0 0.0 0.0 0.00 0.00 0.00 41 1022.9
20260501184055 66 0 0.0 0.0 0.00 0.00 0.00 40 1022.9
20260501183557 67 0 0.0 1.0 0.00 0.00 0.00 39 1022.8
20260501183057 67 0 0.0 1.0 0.00 0.00 0.00 37 1022.7
20260501182554 68 0 0.0 4.0 0.00 0.00 0.00 37 1022.8
20260501182055 68 0 0.0 4.0 0.00 0.00 0.00 36 1022.7